Time,TemperatureF,DewpointF,PressureIn,WindDirection,WindDirectionDegrees,WindSpeedMPH,WindSpeedGustMPH,Humidity,HourlyPrecipIn,Conditions,Clouds,dailyrainin,SoftwareType,DateUTC
2013-07-06 00:01:00,64.0,51.0,30.61,West,270,0.0,0.0,62,-99.99,,,-99.99,,2013-07-06 07:01:00,
2013-07-06 00:12:00,64.0,51.0,30.61,West,270,0.0,0.0,63,-99.99,,,-99.99,,2013-07-06 07:12:00,
2013-07-06 00:33:00,64.0,52.0,30.61,West,270,0.0,0.0,66,-99.99,,,-99.99,,2013-07-06 07:33:00,
2013-07-06 00:43:00,64.0,53.0,30.61,West,270,0.0,0.0,67,-99.99,,,-99.99,,2013-07-06 07:43:00,
2013-07-06 00:52:00,64.0,52.0,30.61,West,270,0.0,0.0,65,-99.99,,,-99.99,,2013-07-06 07:52:00,
2013-07-06 01:01:00,63.0,52.0,30.62,West,270,0.0,0.0,67,-99.99,,,-99.99,,2013-07-06 08:01:00,
2013-07-06 01:11:00,63.0,52.0,30.62,West,270,0.0,0.0,67,-99.99,,,-99.99,,2013-07-06 08:11:00,
2013-07-06 01:21:00,62.0,51.0,30.62,West,270,0.0,0.0,68,-99.99,,,-99.99,,2013-07-06 08:21:00,
2013-07-06 01:33:00,62.0,52.0,30.62,West,270,0.0,0.0,69,-99.99,,,-99.99,,2013-07-06 08:33:00,
2013-07-06 01:43:00,62.0,52.0,30.62,West,270,0.0,0.0,69,-99.99,,,-99.99,,2013-07-06 08:43:00,
2013-07-06 01:54:00,61.0,51.0,30.62,West,270,0.0,0.0,70,-99.99,,,-99.99,,2013-07-06 08:54:00,
2013-07-06 02:02:00,61.0,51.0,30.62,West,270,0.0,0.0,70,-99.99,,,-99.99,,2013-07-06 09:02:00,
2013-07-06 02:11:00,61.0,52.0,30.61,West,270,0.0,0.0,71,-99.99,,,-99.99,,2013-07-06 09:11:00,
2013-07-06 02:22:00,61.0,52.0,30.62,West,270,0.0,0.0,72,-99.99,,,-99.99,,2013-07-06 09:22:00,
2013-07-06 02:33:00,62.0,52.0,30.62,West,270,0.0,0.0,70,-99.99,,,-99.99,,2013-07-06 09:33:00,
2013-07-06 02:43:00,62.0,52.0,30.61,West,270,0.0,0.0,70,-99.99,,,-99.99,,2013-07-06 09:43:00,
2013-07-06 02:52:00,62.0,52.0,30.61,West,270,0.0,0.0,71,-99.99,,,-99.99,,2013-07-06 09:52:00,
2013-07-06 03:02:00,61.0,52.0,30.61,West,270,0.0,0.0,71,-99.99,,,-99.99,,2013-07-06 10:02:00,
2013-07-06 03:11:00,61.0,52.0,30.61,West,270,0.0,0.0,72,-99.99,,,-99.99,,2013-07-06 10:11:00,
2013-07-06 03:21:00,61.0,52.0,30.60,West,270,0.0,0.0,71,-99.99,,,-99.99,,2013-07-06 10:21:00,
2013-07-06 03:33:00,61.0,52.0,30.61,West,270,0.0,0.0,72,-99.99,,,-99.99,,2013-07-06 10:33:00,
2013-07-06 03:42:00,60.0,51.0,30.61,West,270,0.0,0.0,72,-99.99,,,-99.99,,2013-07-06 10:42:00,
2013-07-06 03:53:00,60.0,51.0,30.61,West,270,0.0,0.0,73,-99.99,,,-99.99,,2013-07-06 10:53:00,
2013-07-06 04:01:00,60.0,51.0,30.61,West,270,0.0,0.0,73,-99.99,,,-99.99,,2013-07-06 11:01:00,
2013-07-06 04:11:00,60.0,52.0,30.61,West,270,0.0,0.0,74,-99.99,,,-99.99,,2013-07-06 11:11:00,
2013-07-06 04:21:00,59.0,51.0,30.60,West,270,0.0,0.0,75,-99.99,,,-99.99,,2013-07-06 11:21:00,
2013-07-06 04:32:00,59.0,51.0,30.60,West,270,0.0,0.0,75,-99.99,,,-99.99,,2013-07-06 11:32:00,
2013-07-06 04:42:00,58.0,50.0,30.60,West,270,0.0,0.0,76,-99.99,,,-99.99,,2013-07-06 11:42:00,
2013-07-06 04:52:00,58.0,51.0,30.60,West,270,0.0,0.0,78,-99.99,,,-99.99,,2013-07-06 11:52:00,
2013-07-06 05:01:00,58.0,51.0,30.60,West,270,0.0,0.0,77,-99.99,,,-99.99,,2013-07-06 12:01:00,
2013-07-06 05:11:00,58.0,51.0,30.60,West,270,0.0,0.0,77,-99.99,,,-99.99,,2013-07-06 12:11:00,
2013-07-06 05:21:00,58.0,51.0,30.60,West,270,0.0,0.0,77,-99.99,,,-99.99,,2013-07-06 12:21:00,
2013-07-06 05:33:00,58.0,51.0,30.60,West,270,0.0,0.0,77,-99.99,,,-99.99,,2013-07-06 12:33:00,
2013-07-06 05:43:00,58.0,51.0,30.60,West,270,0.0,0.0,78,-99.99,,,-99.99,,2013-07-06 12:43:00,
2013-07-06 05:52:00,58.0,51.0,30.60,West,270,0.0,0.0,78,-99.99,,,-99.99,,2013-07-06 12:52:00,
2013-07-06 06:22:00,59.0,52.0,30.60,West,270,0.0,0.0,78,-99.99,,,-99.99,,2013-07-06 13:22:00,
2013-07-06 06:33:00,60.0,53.0,30.61,West,270,0.0,0.0,78,-99.99,,,-99.99,,2013-07-06 13:33:00,
2013-07-06 08:43:00,63.0,52.0,30.62,West,270,0.0,0.0,68,-99.99,,,-99.99,,2013-07-06 15:43:00,
2013-07-06 08:52:00,63.0,52.0,30.62,West,270,0.0,0.0,67,-99.99,,,-99.99,,2013-07-06 15:52:00,
2013-07-06 09:03:00,63.0,52.0,30.62,West,270,0.0,0.0,68,-99.99,,,-99.99,,2013-07-06 16:03:00,
2013-07-06 09:11:00,64.0,53.0,30.62,West,270,0.0,0.0,68,-99.99,,,-99.99,,2013-07-06 16:11:00,
2013-07-06 09:22:00,64.0,53.0,30.62,West,270,0.0,0.0,68,-99.99,,,-99.99,,2013-07-06 16:22:00,
2013-07-06 10:01:00,65.0,53.0,30.61,West,270,0.0,0.0,65,-99.99,,,-99.99,,2013-07-06 17:01:00,
2013-07-06 10:12:00,66.0,54.0,30.61,West,270,0.0,0.0,65,-99.99,,,-99.99,,2013-07-06 17:12:00,
2013-07-06 10:22:00,66.0,53.0,30.61,West,270,0.0,0.0,63,-99.99,,,-99.99,,2013-07-06 17:22:00,
2013-07-06 10:43:00,68.0,54.0,30.60,West,270,0.0,0.0,60,-99.99,,,-99.99,,2013-07-06 17:43:00,
2013-07-06 10:53:00,68.0,53.0,30.61,West,270,0.0,0.0,59,-99.99,,,-99.99,,2013-07-06 17:53:00,
2013-07-06 16:44:00,80.0,49.0,30.57,West,270,0.0,0.0,34,-99.99,,,-99.99,,2013-07-06 23:44:00,
2013-07-06 16:53:00,80.0,49.0,30.56,West,270,0.0,0.0,34,-99.99,,,-99.99,,2013-07-06 23:53:00,
2013-07-06 17:02:00,80.0,50.0,30.56,West,270,0.0,0.0,35,-99.99,,,-99.99,,2013-07-07 00:02:00,
2013-07-06 17:33:00,80.0,51.0,30.56,West,270,0.0,0.0,36,-99.99,,,-99.99,,2013-07-07 00:33:00,
2013-07-06 18:04:00,80.0,51.0,30.56,West,270,0.0,0.0,36,-99.99,,,-99.99,,2013-07-07 01:04:00,
2013-07-06 20:32:00,80.0,51.0,30.54,West,270,0.0,0.0,37,-99.99,,,-99.99,,2013-07-07 03:32:00,
2013-07-06 22:51:00,72.0,50.0,30.56,West,270,0.0,0.0,46,-99.99,,,-99.99,,2013-07-07 05:51:00,
2013-07-06 23:01:00,72.0,50.0,30.56,West,270,0.0,0.0,46,-99.99,,,-99.99,,2013-07-07 06:01:00,
2013-07-06 23:11:00,71.0,50.0,30.56,West,270,0.0,0.0,47,-99.99,,,-99.99,,2013-07-07 06:11:00,
2013-07-06 23:21:00,71.0,50.0,30.56,West,270,0.0,0.0,47,-99.99,,,-99.99,,2013-07-07 06:21:00,
2013-07-06 23:32:00,68.0,50.0,30.55,West,270,0.0,0.0,52,-99.99,,,-99.99,,2013-07-07 06:32:00,
2013-07-06 23:43:00,68.0,50.0,30.55,West,270,0.0,0.0,52,-99.99,,,-99.99,,2013-07-07 06:43:00,
2013-07-06 23:52:00,67.0,49.0,30.55,West,270,0.0,0.0,53,-99.99,,,-99.99,,2013-07-07 06:52:00,